Regional Weather Roundup
Issued by NWS Huntsville, AL

Home | Current Version | Previous Version | Text Only | Print | Product List | Glossary On
Versions: 1 2 3 4 5 6 7 8 9 10 11 12 13 14 15 16 17 18 19 20 21 22 23 24 25 26 27 28 29 30 31 32 33 34 35 36 37 38 39 40 41 42 43 44 45 46 47 48 49 50
000
ASUS44 KHUN 231310
RWRHUN

WEATHER ROUNDUP FOR THE TENNESSEE VALLEY
NATIONAL WEATHER SERVICE HUNTSVILLE AL
700 AM CST TUE JAN 23 2018

ALZ001>004-231400-
NORTHWEST ALABAMA

CITY           SKY/WX    TMP DP  RH WIND       PRES   REMARKS
COURTLAND HCN    N/A     37 N/A N/A SW8         N/A  WCI  31
RUSSELLVILLE     N/A     39 N/A N/A MISG        N/A
SHOALS AIRPORT FAIR      38  28  67 W9        29.99R WCI  31
SHOALS TVA RES   N/A     41 N/A N/A MISG        N/A
$$

ALZ005>007-016-231400-
NORTH CENTRAL ALABAMA

CITY           SKY/WX    TMP DP  RH WIND       PRES   REMARKS
CULLMAN AG STN   N/A     34 N/A N/A CALM        N/A
DECATUR AP     FAIR      40  29  64 SW7       29.98R
HUNTSVILLE AP  FAIR      38  30  73 SW7       29.98R WCI  33
MERIDIANVILLE  FAIR      37  30  75 SW5       29.97R WCI  34
REDSTONE ARSN  FAIR      38  29  68 SW5       29.97R WCI  35
VINEMONT AP    FAIR      36  28  71 SW3       30.00R
$$

ALZ008>010-231400-
NORTHEAST ALABAMA

CITY           SKY/WX    TMP DP  RH WIND       PRES   REMARKS
ALBERTVILLE    FAIR      37  32  81 SW5       29.97R WCI  34
FORT PAYNE     FAIR      34  28  80 MISG      29.96R
SCOTTSBORO AP  FAIR      41  28  60 SW7       29.98R
SCOTTSBORO HCN   N/A     37 N/A N/A MISG        N/A
VALLEY HEAD      N/A     30 N/A N/A MISG        N/A
$$

TNZ076-096-097-231400-
SOUTHEASTERN MIDDLE TENNESSEE

CITY           SKY/WX    TMP DP  RH WIND       PRES   REMARKS
TULLAHOMA      CLEAR     37  28  70 SW6       29.93R WCI  33
WINCHESTER     CLEAR     37  28  70 W6        29.95R WCI  33
$$

...SURROUNDING SITES...

CITY           SKY/WX    TMP DP  RH WIND       PRES   REMARKS
ATLANTA        FAIR      44  32  62 W8        29.97R
ANNISTON       FAIR      36  30  79 CALM      30.01R
BIRMINGHAM     FAIR      41  28  60 W7        30.04R
CHATTANOOGA    FAIR      41  29  62 SW8       29.95R
CORINTH        FAIR      39  28  65 W7        29.99R WCI  34
DALTON         FAIR      36  32  87 CALM      29.98R
GADSDEN        FAIR      40  29  64 SW6       30.00R
GOLDEN TRNGL   FAIR      39  29  67 W5        30.05R
HALEYVILLE     FAIR      37  29  72 SW5       30.01R WCI  33
JACKSON TN     FAIR      39  29  67 W10       29.98R WCI  32
MEMPHIS        FAIR      39  29  67 W12       30.01R WCI  32
NASHVILLE      MOCLDY    44  29  55 W7        29.92R
ROME           FAIR      45  30  55 W5        29.97R
SAVANNAH       CLOUDY    41  30  65 CALM      29.98R
SELMER         PTCLDY    39  28  65 W5        29.97R
TUPELO         FAIR      39  28  64 SW3       30.02R
TUSCALOOSA     FAIR      40  31  70 SW5       30.05R
$$

...GULF COAST WEATHER...

CITY           SKY/WX    TMP DP  RH WIND       PRES   REMARKS
GULFPORT       FAIR      45  30  55 NW9       30.13R
PASCAGOULA     FAIR      35  31  85 CALM      30.13R
MOBILE         FAIR      44  29  55 NW5       30.12R
GULF SHORES    FAIR      37  36  97 CALM      30.11R
PENSACOLA      MOCLDY    42  35  76 CALM      30.10R
DESTIN         FAIR      51  35  54 N9        30.08R
PANAMA CITY    FAIR      55  41  60 N8        30.07R
APPALACHICOLA  MOCLDY    61  61 100 NW6       30.02R
$$




USA.gov is the U.S. government's official web portal to all federal, state and local government web resources and services.